Cloud_Cover
100 100 100 100 100 100 5 7 14 2 2 1 43 97 78 29 52 82 100 100 100 100 100 100 100 99 100 96 26 85 98 99 95 95 100 100 100 94 6 98 1 0 16
67 2 0 0 1 1 1 4 12 9 0 36 100 100 77 60 77 100 100 100 100 100 100 98 100 97 65 100 100 90 89 76 20 100 100 100 100 52 6 99 5 7 4
0 0 0 0 0 0 4 5 8 12 6 8 5 70 40 21 100 100 100 100 100 100 100 97 96 100 92 24 100 94 100 95 100 97 100 100 100 17 59 18 32 9 3
0 0 0 0 0 0 2 3 4 8 23 7 3 5 2 78 98 100 99 100 100 100 100 99 95 100 100 59 75 95 100 55 33 100 100 100 100 92 28 20 18 4 4
0 0 0 0 1 0 0 0 4 2 2 7 5 5 5 44 100 100 99 100 100 100 100 100 100 100 100 100 98 6 97 64 19 100 100 100 100 32 100 12 5 7 5
1 0 0 1 0 1 0 6 1 8 2 2 5 5 3 83 100 100 100 100 100 100 100 98 64 53 96 41 64 98 31 26 41 66 100 100 58 30 47 5 5 17 10
0 0 0 0 3 0 0 0 1 3 1 5 5 7 18 100 99 99 100 100 100 100 100 92 100 48 97 39 9 99 51 54 89 100 100 100 96 54 5 5 5 5 10
9 0 1 0 14 0 0 0 0 5 3 5 64 33 100 100 100 100 100 100 100 100 100 100 94 100 13 7 5 20 53 71 100 100 100 100 43 25 5 5 5 8 5
34 1 0 0 0 0 2 2 1 5 7 99 100 100 100 100 100 100 100 100 100 100 100 100 100 100 28 7 37 27 100 100 100 100 100 100 7 95 5 5 24 6 13
18 5 5 5 0 0 0 8 7 8 100 100 100 100 100 100 100 100 100 100 100 100 100 100 76 96 6 2 23 99 88 100 100 100 100 81 74 100 58 23 5 44 5
4 5 40 12 5 0 0 26 20 8 89 100 100 78 100 100 100 100 100 100 100 100 96 94 100 100 100 100 100 43 67 100 100 22 97 95 100 100 100 23 7 100 100
1 5 41 74 8 0 0 28 17 5 83 81 79 87 83 88 95 100 100 100 100 99 8 88 52 100 38 56 41 5 83 100 91 98 99 100 99 100 100 100 64 100 100
2 5 9 9 20 18 0 4 37 8 74 100 48 19 66 100 98 16 68 100 45 100 43 5 5 98 34 6 5 69 100 100 100 53 100 90 12 100 100 100 100 100 100
0 3 5 5 100 98 14 16 2 92 22 100 100 100 85 100 15 14 99 88 44 95 11 93 69 41 10 18 6 97 98 58 9 100 100 16 80 96 100 100 100 100 100
0 0 2 55 47 83 96 98 47 3 80 7 98 100 27 100 53 21 7 9 85 87 93 100 86 100 100 27 25 100 88 14 66 100 54 100 100 100 100 100 100 100 100
0 0 0 100 11 70 92 100 100 69 88 99 40 100 82 75 76 98 79 8 100 100 98 96 100 100 97 100 93 80 49 20 82 100 100 100 100 100 100 100 100 100 100
0 0 0 73 98 95 100 50 97 100 100 100 98 100 100 55 97 5 34 17 23 96 100 100 100 7 45 100 100 92 48 5 62 32 99 100 100 100 100 100 100 100 100
0 0 0 6 90 97 100 100 100 100 100 100 100 100 100 100 100 100 99 97 50 30 16 96 100 100 100 100 18 5 9 6 75 40 100 100 100 100 100 100 100 100 100
0 0 0 0 5 99 100 100 65 94 100 100 98 97 72 97 100 100 100 100 100 100 100 100 100 100 100 71 15 5 39 27 87 28 82 90 100 98 99 100 100 100 100
4 5 3 0 0 25 100 100 91 93 94 100 100 95 52 52 100 100 64 39 100 72 88 100 100 100 97 56 15 23 70 18 100 18 92 88 54 68 93 100 91 88 100
4 4 5 5 0 0 62 98 100 86 100 100 90 12 86 8 66 7 5 58 5 5 9 82 87 60 86 12 98 100 70 92 70 91 12 13 100 44 100 61 98 76 100
3 15 4 4 5 0 0 1 18 74 100 98 92 100 51 54 3 94 97 89 12 2 18 66 19 5 14 8 5 6 41 54 61 5 6 13 72 100 92 100 94 70 95
0 10 60 72 4 0 0 0 0 4 4 11 83 63 61 59 68 90 17 37 10 32 22 43 39 82 57 68 35 82 74 27 6 5 5 16 57 44 70 100 91 22 98
5 0 3 50 5 2 0 5 4 5 2 4 5 10 40 7 63 84 13 78 91 92 100 100 100 100 100 100 100 74 96 10 84 93 9 21 92 13 47 100 100 100 100
94 14 65 87 6 5 7 5 5 5 3 0 4 37 100 65 5 100 100 98 8 98 99 93 95 96 95 100 100 98 89 23 5 88 100 100 89 27 21 12 82 100 100
5 1 1 38 14 5 5 5 5 5 5 5 5 5 24 89 100 89 84 98 91 100 98 46 42 38 64 48 79 47 95 100 42 5 5 96 100 73 69 79 31 94 100